Flag for Canada Weather past 2 weeks in Chilliwack, British Columbia, Canada

Now
59 °F

Cool.


Feels Like: 59 °F
Forecast: 55 / 64 °F
Wind: 1 mph from Northwest

Location: Agassiz

Current Time: Aug 30, 2015 at 1:49:28 AM

Latest Report: Aug 30, 2015 at 1:00 AM


Visibility: N/A

Pressure: 29.72 "Hg

Humidity: 97%

Dew point: 58 °F

Location of ChilliwackLocation

Historic Weather in Chilliwack — Graph

°F

Chilliwack temperature yesterday

Maximum temperature yesterday: 66 °F (at 12:00 AM)
Minimum temperature yesterday: 59 °F (at 9:00 PM)
Average temperature yesterday: 62 °F

Past Weeks' High & Low Weather Summary

 TemperatureHumidityPressure
High91 °F (Aug 18, 4:00 PM)100% (Aug 16, 7:00 AM)30.27 "Hg (Aug 16, 7:00 AM)
Low46 °F (Aug 25, 6:00 AM)25% (Aug 22, 3:00 PM)29.49 "Hg (Aug 29, 7:00 AM)
Average66 °F68%29.99 "Hg
* Reported Midnight between Aug 14 and Aug 15 — Midnight between Aug 29 and Aug 30, Chilliwack, Weather by CustomWeather, © 2015

Note: Actual official high and low records may vary slightly from our data, if they occured in-between our weather recording intervals... More about our weather records

Advertising

Chilliwack weather history for previous 24 hours

 ConditionsComfort  
Time TempWeatherWind HumidityBarometerVisibility
12:00 AM
Sun, Aug 30
58 °FCool.2 mph95%29.71 "HgN/A
11:00 PM
Sat, Aug 29
59 °FCool.1 mph93%29.71 "HgN/A
10:00 PM59 °FCool.1 mph95%29.71 "HgN/A
9:00 PM59 °FCool.2 mph94%29.72 "HgN/A
8:00 PM60 °FCool.3 mph93%29.69 "HgN/A
7:00 PM60 °FCool.3 mph91%29.68 "HgN/A
6:00 PM62 °FCool.3 mph87%29.66 "HgN/A
5:00 PM64 °FMild.5 mph78%29.66 "HgN/A
4:00 PM64 °FMild.5 mph83%29.64 "HgN/A
3:00 PM63 °FMild.2 mph92%29.60 "HgN/A
2:00 PM64 °FMild.6 mph84%29.55 "HgN/A
1:00 PM66 °FMild.3 mph72%29.54 "HgN/A
12:00 PM64 °FMild.3 mph78%29.51 "HgN/A
11:00 AM64 °FMild.15 mph79%29.52 "HgN/A
10:00 AM62 °FCool.8 mph81%29.52 "HgN/A
9:00 AM61 °FCool.2 mph95%29.57 "HgN/A
8:00 AM61 °FCool.3 mph93%29.58 "HgN/A
7:00 AM62 °FCool.3 mph86%29.49 "HgN/A
6:00 AM63 °FMild.8 mph80%29.52 "HgN/A
5:00 AM63 °FMild.6 mph82%29.58 "HgN/A
4:00 AM62 °FCool.3 mph89%29.63 "HgN/A
3:00 AM64 °FMild.8 mph83%29.66 "HgN/A
2:00 AM62 °FMild.3 mph89%29.71 "HgN/A
1:00 AM63 °FMild.1 mph88%29.73 "HgN/A
Weather by CustomWeather, © 2015

See weather overviewHow to use our weather pages